Miscellaneous Local Product
Issued by NWS Hastings, NE

Home | Current Version | Previous Version | Text Only | Print | Product List | Glossary Off
Versions: 1 2 3 4 5 6 7 8 9 10 11 12 13 14 15 16 17 18 19 20 21 22 23 24 25 26 27 28 29 30 31 32 33 34 35 36 37 38 39 40 41 42 43 44 45 46 47 48 49 50

398
AXUS43 KGID 271902
MISGRI

GID CWA HOURLY WEATHER ROUNDUP
NATIONAL WEATHER SERVICE HASTINGS NE
200 PM CDT THU APR 27 2017

NOTE: "FAIR" INDICATES FEW OR NO CLOUDS BELOW 12,000 FEET WITH NO
SIGNIFICANT WEATHER AND/OR OBSTRUCTIONS TO VISIBILITY.

...SOUTH CENTRAL NEBRASKA...

CITY           SKY/WX    TMP DP  RH WIND       PRES   REMARKS
GRAND ISLAND   CLOUDY    53  30  41 W5        29.70F
HASTINGS       CLOUDY    51  31  46 S6        29.70F
KEARNEY        PTSUNNY   54  30  40 SE7       29.68F
ORD            CLOUDY    51  32  48 VRB5      29.67F
YORK           MOSUNNY   55  32  41 W5        29.70F
AURORA         CLOUDY    54  30  39 SE3       29.70S
LEXINGTON      CLOUDY    52  34  51 SE14      29.66F
HOLDREGE       DRIZZLE   48  37  65 SE12      29.66F
HEBRON         CLOUDY    54  31  41 CALM      29.71F

...NEBRASKA PANHANDLE...

CITY           SKY/WX    TMP DP  RH WIND       PRES   REMARKS
CHADRON        CLOUDY    50  35  56 E10       29.57F
ALLIANCE       CLOUDY    49  38  65 SE14      29.55F
SCOTTSBLUFF    LGT RAIN  46  40  79 S5        29.56S
SIDNEY         CLOUDY    51  42  71 NE15      29.54F

...WESTERN AND NORTH CENTRAL NEBRASKA...

CITY           SKY/WX    TMP DP  RH WIND       PRES   REMARKS
VALENTINE      SUNNY     53  29  39 E12       29.65F
AINSWORTH      SUNNY     49  33  53 E3        29.65F
ONEILL         MOSUNNY   47  33  56 N5        29.69F
BROKEN BOW       N/A     51  34  52 SE9       29.65F
IMPERIAL       MOSUNNY   53  36  52 E18G25    29.55F
NORTH PLATTE   PTSUNNY   53  37  54 SE14      29.62F
MCCOOK         CLOUDY    51  35  54 E15       29.59F

...EASTERN NEBRASKA...

CITY           SKY/WX    TMP DP  RH WIND       PRES   REMARKS
NORFOLK        CLOUDY    47  33  58 MISG      29.70F
SO SIOUX CITY  MOSUNNY   47  33  58 N15       29.71S
TEKAMAH        SUNNY     53  33  46 NW14      29.71F
COLUMBUS       SUNNY     54  34  47 W5        29.72S
ALBION         MOSUNNY   50  33  52 NW3       29.70S
OMAHA EPPLEY   MOSUNNY   52  34  50 CALM      29.72F
OFFUTT AFB     SUNNY     51  35  55 NW8       29.72F
MILLARD        MOSUNNY   50  36  58 CALM      29.72F
LINCOLN        SUNNY     56  32  40 CALM      29.72F
NEBRASKA CITY  SUNNY     54  28  35 NW6       29.72F
BEATRICE       PTSUNNY   55  34  45 SW6       29.72S
FALLS CITY     MOSUNNY   57  36  45 W7        29.71F

...NORTHERN KANSAS...

CITY           SKY/WX    TMP DP  RH WIND       PRES   REMARKS
GOODLAND       MOSUNNY   60  38  43 SE23G30   29.49F
HILL CITY      CLOUDY    54  38  54 SE15G26   29.61F
NORTON         MOCLDY    55  34  44 E15G25    29.60F
PHILLIPSBURG   PTSUNNY   57  36  44 E14G21    29.64F
SMITH CENTER   CLOUDY    52  34  50 E10G18    29.67F
RUSSELL        CLOUDY    55  40  56 SE15      29.65F
CONCORDIA      CLOUDY    57  36  45 VRB3      29.70F
SALINA         PTSUNNY   60  39  45 SE10      29.70F
TOPEKA         SUNNY     61  37  41 SW6       29.71F



USA.gov is the U.S. government's official web portal to all federal, state and local government web resources and services.